Wind_Speed
11 11 11 12 12 12 12 12 12 12 11 11 11 10 10 9 8 7 7 8 8 8 8 8 7 7 8 8 9 9 9 10 11 12 13 13 14 15 15 16 17 17 18
12 12 12 13 14 14 14 13 13 13 13 12 12 12 12 10 9 9 9 9 9 9 8 8 8 9 9 9 10 10 11 12 13 13 14 15 15 16 17 18 18 18 19
13 13 14 15 15 16 15 15 15 14 14 13 13 13 12 12 11 10 10 10 10 10 9 10 10 10 10 11 12 12 13 14 14 14 15 16 16 17 17 18 19 20 21
13 14 15 15 16 16 17 16 15 14 14 13 12 12 12 12 12 11 11 10 10 11 11 11 12 12 12 13 13 14 15 16 16 16 16 17 18 18 19 19 20 21 22
14 15 15 15 16 16 17 16 15 15 14 13 13 13 12 12 12 12 12 11 12 13 12 12 13 13 13 14 14 15 16 17 18 17 18 18 19 19 20 21 22 22 23
16 16 16 16 16 16 17 15 14 14 14 13 13 13 12 12 13 13 12 12 13 13 12 13 14 15 15 16 16 17 18 19 19 18 19 19 20 21 22 22 23 24 24
17 17 17 17 17 17 16 15 15 14 14 14 13 13 13 13 13 13 13 13 13 13 13 13 14 16 17 18 18 19 20 20 20 20 20 21 22 23 23 24 24 25 26
17 18 18 18 18 18 17 16 16 16 15 15 15 14 15 15 14 15 15 15 15 15 15 15 16 17 19 20 21 21 21 21 21 22 23 23 24 25 25 25 25 26 27
17 18 18 19 19 18 18 17 16 16 16 17 17 16 15 16 15 15 15 16 17 17 17 18 19 19 20 21 21 22 22 22 23 23 24 24 25 26 26 26 26 27 27
18 18 19 18 18 18 18 17 17 18 17 18 18 17 17 17 17 16 17 17 18 18 19 20 21 22 22 22 23 23 23 23 24 25 25 25 26 26 27 27 28 28 27
19 18 19 18 19 19 18 18 19 18 18 18 18 18 19 18 18 18 19 19 20 20 20 22 22 23 24 24 24 24 25 25 25 26 26 26 26 27 27 27 28 28 28
19 19 19 20 19 18 18 19 19 19 19 19 19 19 20 20 20 21 21 21 21 21 22 23 24 24 24 24 24 25 25 26 26 26 26 26 26 26 27 27 27 28 28
20 20 21 20 20 20 19 19 19 19 20 20 20 21 22 22 21 22 23 23 23 23 23 24 24 24 24 24 25 25 26 27 26 26 26 26 27 27 27 27 28 28 29
21 21 21 21 21 22 22 21 21 22 21 22 22 22 22 23 23 23 23 23 24 24 24 24 24 24 25 25 25 26 26 26 26 26 27 27 27 28 28 29 29 30 30
22 21 22 22 22 23 23 23 23 23 23 23 23 23 23 22 22 23 23 24 24 24 24 24 25 25 25 25 26 26 26 26 26 27 27 27 28 28 29 30 30 31 31
22 23 23 23 23 23 23 24 24 23 23 23 23 24 23 23 24 23 23 23 24 24 24 25 25 25 24 25 25 26 26 27 27 27 28 28 29 29 29 30 31 32 32
24 24 23 23 23 23 23 23 23 22 22 23 24 24 24 24 24 23 23 24 24 24 24 25 25 24 25 25 26 27 27 27 28 28 28 29 29 30 31 31 32 32 32
25 24 24 24 24 23 23 23 23 23 23 23 24 23 23 23 23 23 23 24 24 24 24 24 24 25 25 26 26 27 28 28 29 29 29 30 31 31 32 32 32 32 32
26 26 25 24 24 24 24 23 23 23 23 23 23 23 22 23 23 23 23 23 23 24 25 25 25 26 26 27 28 28 29 29 29 30 30 30 31 32 32 32 32 33 33
26 26 25 25 24 24 24 24 23 23 23 23 23 23 22 22 22 22 22 23 24 25 26 26 26 27 27 28 29 29 29 30 30 30 30 30 31 32 32 33 33 34 34
26 27 27 26 25 25 25 24 24 24 24 24 23 23 22 22 23 23 24 24 25 26 26 26 27 27 28 28 28 28 29 29 29 30 30 31 31 32 33 33 33 34 34
27 27 26 26 26 26 26 26 26 25 25 25 24 24 24 24 24 24 24 25 26 27 27 27 28 28 27 28 29 29 29 29 30 30 31 31 32 32 32 33 33 33 34
27 26 26 26 26 25 25 25 25 26 25 25 25 25 25 25 25 26 26 26 27 28 28 28 28 28 28 29 29 29 29 29 30 31 31 31 32 32 32 33 33 34 34
25 24 24 25 25 25 25 25 25 25 25 25 25 25 25 26 26 26 27 27 27 28 28 28 28 28 28 29 28 29 29 29 30 30 31 31 32 32 33 34 34 34 34
24 24 24 25 25 25 25 25 25 25 25 25 25 25 25 26 26 26 26 27 27 28 28 28 28 28 28 28 28 29 29 29 30 31 31 32 32 33 33 33 33 33 33
24 24 24 24 24 24 24 24 24 24 24 25 25 25 25 25 25 25 26 27 27 27 27 28 28 27 28 29 29 30 30 30 31 31 32 32 32 32 32 32 32 32 32
Wind_Direction
318 322 324 325 325 325 323 321 320 320 320 320 317 316 316 316 312 308 303 297 294 295 293 286 282 285 288 293 296 295 294 292 292 290 291 290 290 290 289 289 288 289 289
316 317 318 319 320 320 317 314 312 312 311 310 310 310 310 309 303 301 298 293 293 294 291 293 286 284 286 289 289 290 293 295 295 294 292 291 293 293 291 289 290 290 290
314 315 315 315 316 317 315 310 309 309 306 303 305 305 306 306 301 295 294 294 290 288 286 291 292 286 284 285 286 286 290 294 294 293 294 294 295 295 293 292 292 292 292
310 312 314 314 313 317 317 312 310 308 304 303 304 305 306 306 302 295 292 293 289 288 288 291 294 290 286 287 287 289 292 294 295 294 294 294 295 295 293 292 292 291 291
308 311 314 316 314 313 314 313 312 311 308 306 306 303 302 302 300 298 297 295 292 291 290 293 297 294 292 292 291 292 293 293 293 293 293 294 295 295 293 293 292 292 291
304 307 311 313 314 313 311 311 315 314 310 309 307 305 303 301 300 298 295 293 295 294 293 295 296 299 297 296 295 294 294 293 291 291 291 292 294 294 293 293 292 291 291
297 301 305 308 309 312 310 310 311 311 311 310 308 307 306 304 300 296 292 293 295 294 293 292 296 298 300 302 299 298 298 294 292 292 293 295 295 295 294 293 292 291 290
294 297 300 303 305 307 309 307 307 307 307 308 305 305 305 305 304 299 294 294 293 294 294 294 295 298 301 301 301 300 299 298 296 294 294 296 296 296 296 295 295 293 291
293 295 298 302 304 305 305 303 303 304 304 306 304 305 304 304 303 302 300 297 293 292 292 294 295 296 298 299 299 299 299 299 298 297 298 297 297 296 296 296 295 294 293
293 294 297 298 302 302 303 302 301 302 302 304 302 301 302 302 300 298 297 297 295 294 294 294 296 297 298 297 298 299 299 298 297 298 298 297 297 298 298 297 296 295 295
292 294 294 292 301 303 300 302 304 300 298 299 299 299 299 299 298 297 298 298 296 296 296 297 298 299 298 298 299 301 300 298 297 297 297 298 298 298 298 297 297 296 296
291 292 292 291 296 301 300 299 300 298 296 295 295 296 295 294 293 294 295 295 296 296 297 296 297 298 298 299 300 300 300 300 298 298 298 298 299 299 299 299 298 297 297
289 290 292 293 292 299 300 300 299 298 298 296 294 294 293 291 289 291 293 293 294 296 298 298 298 296 297 298 299 299 300 300 300 299 299 299 299 299 299 299 299 299 298
285 286 290 293 293 296 298 301 302 301 300 298 295 295 295 292 289 290 291 293 294 295 296 297 297 295 294 296 298 298 299 300 300 299 299 300 300 300 300 299 300 301 300
284 286 289 291 293 297 299 299 300 300 299 299 297 297 297 294 292 292 293 293 294 295 296 296 296 296 296 297 298 298 298 298 299 300 299 300 300 301 301 300 301 301 301
285 288 288 288 292 296 297 298 298 298 297 296 297 297 296 295 294 293 293 293 295 297 296 296 296 296 296 296 297 298 298 298 299 299 299 299 300 301 300 300 300 301 301
284 287 288 290 292 295 296 296 297 297 297 297 297 295 294 294 294 293 294 294 295 295 296 296 295 295 296 296 297 298 298 298 298 298 299 299 300 300 300 300 300 301 302
281 283 286 289 291 293 295 295 296 296 296 297 298 299 296 294 294 295 296 296 296 296 297 298 297 296 296 296 298 298 298 298 298 299 299 299 299 300 300 301 301 301 303
277 280 284 286 288 290 292 294 295 295 296 296 298 299 299 297 294 294 296 296 297 299 299 299 297 297 297 297 298 299 299 299 299 300 300 301 301 301 301 302 302 302 303
275 278 281 284 285 287 290 292 293 294 295 296 297 297 297 296 296 296 296 297 298 299 300 300 299 298 299 299 299 299 299 299 300 301 301 301 301 302 302 302 303 303 303
275 278 280 281 282 285 287 289 291 292 293 294 294 294 293 294 295 295 295 296 297 298 299 299 299 299 301 300 299 300 300 300 301 302 302 302 302 302 303 303 304 304 305
277 278 278 278 279 282 284 287 289 291 292 291 291 291 291 291 293 294 294 295 296 298 299 298 298 299 300 299 299 300 300 301 302 303 304 304 304 304 304 305 305 306 306
276 276 277 277 278 280 284 287 288 290 290 291 291 290 290 290 292 293 295 295 296 297 298 298 298 299 299 299 299 300 301 302 303 304 305 306 306 306 305 305 306 306 307
275 275 275 275 277 280 283 285 287 288 289 290 290 290 290 291 292 294 295 295 296 297 297 298 299 299 300 301 301 302 303 304 305 305 306 307 307 307 307 307 307 306 307
273 275 276 277 279 280 282 283 285 287 288 289 291 292 293 294 294 295 296 296 297 297 298 299 300 301 302 302 302 303 305 306 307 307 308 308 308 308 307 307 307 307 308
273 276 278 279 280 281 282 284 285 286 288 289 292 294 296 296 296 296 296 297 298 298 300 301 301 302 303 303 303 305 306 307 308 309 309 310 310 309 309 309 308 308 309
Height
5909 5907 5906 5904 5902 5900 5898 5895 5893 5891 5889 5887 5885 5883 5882 5880 5879 5878 5876 5876 5875 5874 5873 5872 5871 5871 5870 5869 5868 5867 5865 5864 5863 5862 5861 5859 5858 5856 5854 5853 5851 5849 5847
5907 5905 5904 5902 5900 5897 5895 5893 5891 5888 5886 5885 5883 5881 5879 5878 5876 5875 5874 5873 5872 5872 5871 5870 5869 5868 5867 5866 5865 5864 5863 5861 5860 5858 5857 5855 5853 5851 5850 5848 5846 5844 5842
5904 5903 5901 5899 5897 5894 5892 5890 5887 5885 5883 5881 5879 5878 5876 5875 5874 5873 5872 5871 5870 5869 5868 5867 5865 5864 5864 5863 5862 5860 5859 5858 5856 5854 5852 5851 5849 5847 5845 5843 5841 5839 5837
5901 5900 5898 5895 5893 5891 5888 5886 5884 5882 5880 5878 5876 5875 5873 5872 5870 5869 5868 5867 5866 5865 5864 5863 5862 5861 5860 5859 5857 5856 5855 5853 5852 5850 5848 5846 5844 5842 5840 5837 5835 5833 5831
5898 5896 5894 5892 5889 5887 5885 5882 5880 5878 5877 5875 5873 5872 5870 5869 5867 5866 5865 5864 5863 5862 5861 5860 5859 5857 5856 5855 5853 5852 5850 5849 5847 5845 5843 5841 5839 5836 5834 5831 5829 5827 5824
5894 5892 5890 5888 5886 5883 5881 5879 5877 5875 5873 5872 5870 5869 5867 5865 5864 5863 5862 5860 5859 5858 5858 5856 5855 5854 5852 5850 5849 5847 5845 5844 5841 5839 5837 5835 5833 5831 5828 5825 5823 5820 5818
5889 5888 5887 5885 5882 5880 5878 5876 5875 5872 5870 5868 5867 5865 5863 5862 5861 5859 5858 5857 5856 5855 5854 5853 5851 5850 5848 5846 5844 5842 5840 5838 5836 5834 5831 5829 5827 5824 5822 5819 5816 5813 5811
5884 5883 5882 5880 5878 5876 5874 5873 5871 5869 5867 5865 5863 5862 5860 5859 5857 5856 5854 5853 5852 5851 5850 5849 5847 5845 5843 5841 5839 5837 5834 5832 5830 5827 5825 5823 5820 5817 5814 5812 5809 5806 5803
5879 5878 5877 5876 5874 5872 5870 5869 5867 5865 5863 5861 5859 5858 5856 5855 5853 5851 5850 5849 5848 5847 5845 5844 5842 5840 5838 5836 5833 5831 5828 5826 5823 5821 5818 5815 5813 5810 5807 5804 5801 5798 5795
5875 5874 5873 5871 5869 5867 5866 5864 5863 5861 5859 5857 5855 5853 5852 5850 5848 5847 5846 5844 5843 5841 5840 5838 5836 5834 5832 5829 5827 5825 5822 5819 5817 5814 5811 5808 5805 5802 5799 5796 5793 5790 5787
5870 5869 5868 5867 5864 5862 5861 5860 5858 5856 5854 5852 5850 5848 5846 5845 5843 5842 5840 5839 5837 5836 5834 5832 5830 5827 5825 5823 5820 5818 5815 5812 5809 5806 5803 5801 5798 5795 5791 5788 5785 5782 5779
5864 5863 5862 5861 5859 5857 5856 5854 5852 5850 5849 5847 5845 5843 5841 5839 5838 5836 5834 5833 5831 5829 5828 5825 5823 5821 5818 5816 5813 5810 5808 5805 5802 5799 5796 5793 5790 5787 5784 5781 5777 5774 5771
5858 5857 5856 5855 5854 5852 5850 5849 5846 5845 5843 5841 5839 5837 5835 5834 5832 5830 5828 5827 5825 5823 5821 5819 5816 5814 5811 5809 5806 5803 5800 5797 5794 5792 5789 5786 5783 5780 5776 5773 5770 5766 5763
5852 5851 5850 5849 5848 5846 5845 5843 5841 5839 5836 5835 5833 5831 5829 5828 5826 5824 5822 5820 5818 5816 5814 5812 5809 5807 5804 5801 5799 5796 5793 5790 5787 5784 5781 5778 5775 5772 5768 5765 5762 5758 5755
5846 5845 5844 5843 5842 5841 5839 5837 5835 5833 5831 5829 5827 5825 5823 5821 5819 5817 5815 5814 5812 5809 5807 5805 5802 5800 5797 5794 5791 5789 5786 5783 5780 5777 5774 5770 5767 5764 5761 5757 5753 5750 5746
5840 5839 5838 5837 5836 5834 5833 5831 5829 5827 5824 5822 5820 5818 5816 5814 5812 5811 5809 5807 5804 5802 5800 5797 5795 5792 5789 5787 5784 5781 5778 5776 5773 5769 5766 5763 5759 5756 5753 5749 5745 5741 5737
5833 5832 5831 5830 5829 5828 5826 5824 5822 5820 5818 5816 5814 5811 5809 5807 5806 5804 5802 5800 5797 5795 5793 5790 5787 5784 5782 5779 5777 5774 5771 5768 5765 5762 5758 5755 5751 5748 5744 5740 5736 5732 5728
5826 5825 5824 5823 5822 5821 5819 5817 5815 5813 5812 5809 5807 5804 5802 5801 5799 5797 5795 5793 5790 5788 5786 5783 5780 5777 5774 5772 5769 5766 5763 5760 5757 5753 5750 5746 5743 5739 5735 5731 5727 5723 5719
5819 5818 5817 5816 5815 5814 5812 5810 5808 5806 5805 5803 5801 5798 5796 5794 5792 5790 5788 5786 5783 5781 5778 5776 5773 5770 5767 5764 5761 5758 5755 5751 5748 5744 5741 5737 5734 5730 5726 5722 5718 5713 5709
5811 5810 5809 5808 5808 5807 5805 5803 5802 5800 5798 5796 5794 5792 5790 5788 5786 5784 5781 5779 5777 5774 5771 5768 5765 5762 5759 5756 5753 5750 5746 5743 5739 5736 5732 5728 5725 5720 5716 5712 5708 5704 5700
5802 5802 5801 5800 5800 5799 5798 5796 5795 5793 5791 5789 5787 5785 5783 5781 5779 5777 5775 5772 5769 5767 5764 5761 5758 5754 5751 5748 5745 5741 5738 5734 5731 5727 5724 5720 5716 5711 5707 5703 5699 5695 5690
5795 5794 5793 5792 5791 5791 5790 5788 5787 5785 5783 5782 5780 5778 5776 5774 5772 5770 5767 5765 5762 5759 5756 5753 5750 5746 5743 5740 5737 5733 5730 5726 5723 5719 5715 5711 5706 5702 5698 5694 5690 5685 5681
5786 5786 5785 5784 5784 5783 5781 5780 5779 5777 5775 5774 5772 5770 5768 5766 5764 5762 5759 5757 5754 5751 5748 5745 5742 5739 5735 5732 5728 5725 5721 5718 5714 5710 5706 5702 5698 5693 5689 5685 5681 5676 5672
5778 5777 5776 5776 5775 5774 5773 5772 5771 5769 5768 5766 5764 5762 5760 5758 5756 5754 5751 5749 5746 5743 5740 5737 5734 5731 5727 5724 5720 5717 5713 5709 5705 5701 5697 5693 5689 5684 5680 5676 5671 5667 5662
5770 5769 5769 5768 5767 5766 5765 5764 5763 5761 5760 5758 5757 5755 5753 5750 5748 5746 5743 5741 5738 5735 5732 5729 5726 5722 5719 5716 5712 5709 5705 5701 5697 5693 5689 5684 5680 5676 5671 5667 5662 5658 5653
5762 5762 5761 5759 5758 5757 5756 5755 5754 5753 5752 5751 5749 5747 5745 5743 5740 5738 5735 5733 5730 5727 5724 5721 5718 5714 5711 5708 5704 5700 5697 5692 5688 5684 5680 5676 5671 5667 5662 5658 5653 5649 5645